Regional Weather Roundup
Issued by NWS

Home | Current Version | Previous Version | Graphics & Text | Print | Product List | Glossary On
Versions: 1 2 3 4 5 6 7 8 9 10 11 12 13 14 15 16 17 18 19 20 21 22 23 24 25 26 27 28 29 30 31 32 33 34 35 36 37 38 39 40 41 42 43 44 45 46 47 48 49 50
000
ASUS43 KOAX 030510
RWRNE

WEATHER ROUNDUP FOR NEBRASKA
NATIONAL WEATHER SERVICE OMAHA NE
1200 AM CDT THU SEP 03 2015

NOTES: SATELLITE DATA IS BEING USED TO AUGMENT CLOUD COVER ABOVE
       12000 FEET.
       "FAIR" INDICATES FEW OR NO CLOUDS BELOW 12,000 FEET WITH NO
       SIGNIFICANT WEATHER AND/OR OBSTRUCTIONS TO VISIBILITY.

  * THESE STATIONS DO NOT REPORT WEATHER SUCH AS RAIN...SNOW OR FOG.

NEZ001>004-019>022-054>056-030600-
NEBRASKA PANHANDLE

CITY           SKY/WX    TMP DP  RH WIND       PRES   REMARKS
SCOTTSBLUFF    PTCLDY    69  53  56 E5        29.91F
ALLIANCE       CLEAR     63  49  60 S9        29.91S
CHADRON        CLEAR     72  44  36 W3        29.83S
KIMBALL        PTCLDY    65  45  48 W9        29.99S
SIDNEY         PTCLDY    68  44  42 S6        29.96S
$$

NEZ057>060-069>072-079>082-030600-
SOUTHWEST NEBRASKA

CITY           SKY/WX    TMP DP  RH WIND       PRES   REMARKS
NORTH PLATTE   CLEAR     69  64  84 E7        29.86F
IMPERIAL       PTCLDY    71  57  61 E3        29.88S
LEXINGTON      CLEAR     71  64  79 E5        29.85S
MCCOOK         PTCLDY    75  61  61 E8        29.84S
OGALLALA       CLEAR     74  57  56 E6        29.89S
$$

NEZ005>010-023>029-035>040-094-030600-
NORTH CENTRAL NEBRASKA

CITY           SKY/WX    TMP DP  RH WIND       PRES   REMARKS
VALENTINE      CLEAR     75  59  57 SW9       29.83S
AINSWORTH      CLEAR     75  62  63 S9        29.85S
BROKEN BOW     CLEAR     66  63  90 CALM      29.86F
O`NEILL        CLEAR     73  70  89 SE6       29.85S
ORD            CLEAR     69  64  84 CALM      29.84F
THEDFORD       CLEAR     69  62  78 CALM      29.88F
$$

NEZ041-046>049-061>064-073>077-083>087-030600-
SOUTH CENTRAL NEBRASKA

CITY           SKY/WX    TMP DP  RH WIND       PRES   REMARKS
GRAND ISLAND   CLEAR     75  65  70 SE8       29.86S
AURORA         CLEAR     71  68  89 SE6       29.86S
HASTINGS       CLEAR     79  62  56 S9        29.86R
HEBRON         CLEAR     79  64  58 S12G20    29.87S
HOLDREGE       CLEAR     71  61  72 SE3       29.85S
KEARNEY *      CLEAR     75  61  60 SE10      29.85S
YORK           CLEAR     75  68  78 S9        29.87S
$$

NEZ011>018-030>034-042>045-030600-
NORTHEAST NEBRASKA

CITY           SKY/WX    TMP DP  RH WIND       PRES   REMARKS
NORFOLK        CLEAR     75  69  81 SE8       29.84F
ALBION         CLEAR     71  67  87 SE6       29.86S
BLAIR          CLEAR     77  67  72 S13       29.88S
COLUMBUS *     CLEAR     72  64  78 CALM      29.86S
FREMONT        CLEAR     79  67  66 SE13      29.87S
TEKAMAH        CLEAR     72  70  93 SE5       29.85S
WAYNE          CLEAR     74  70  87 S10       29.85F
$$

NEZ050>053-065>068-078-088>093-030600-
SOUTHEAST NEBRASKA

CITY           SKY/WX    TMP DP  RH WIND       PRES   REMARKS
LINCOLN        CLEAR     76  67  73 S8        29.87R
OMAHA EPPLEY   CLEAR     79  70  74 S13       29.87S
BEATRICE       CLEAR     78  66  68 S12       29.88S
FALLS CITY     CLEAR     79  69  71 S12       29.90S
NEBRASKA CITY  CLEAR     76  67  74 S13       29.89S
PLATTSMOUTH    CLEAR     75  67  76 SE10      29.89S
$$

NEZ044-045-051>053-067-030600-
OMAHA AREA

CITY           SKY/WX    TMP DP  RH WIND       PRES   REMARKS
OMAHA EPPLEY   CLEAR     79  70  74 S13       29.87S
BLAIR          CLEAR     77  67  72 S13       29.88S
FREMONT        CLEAR     79  67  66 SE13      29.87S
MILLARD        CLEAR     78  70  77 E5        29.88S
OFFUTT AFB     CLEAR     76  70  81 SE7       29.87S
PLATTSMOUTH    CLEAR     75  67  76 SE10      29.89S
WAHOO          FAIR      72  69  89 SE6       29.87S
$$




USA.gov is the U.S. government's official web portal to all federal, state and local government web resources and services.